SCP
0 0 0 0 0 0 0 0 0 0 0 0 0 0 0 0 0 0 0 0 0 0 0 0 0 0 0 0 0 0 0 0 0 0 0 0 0 0 0 0 0 0 0
0 0 0 0 0 0 0 0 0 0 0 0 0 0 0 0 0 0 0 0 0 0 0 0 0 0 0 0 0 0 0 0 0 0 0 0 0 0 0 0 0 0 0
0 0 0 0 0 0 0 0 0 0 0 0 0 0 0 0 0 0 0 0 0 0 0 0 0 0 0 0 0 0 0 0 0 0 0 0 0 0 0 0 0 0 0
0 0 0 0 0 0 0 0 0 0 0 0 0 0 0 0 0 0 0 0 0 0 0 0 0 0 0 0 0 0 0 0 0 0 0 0 0 0 0 0 0 0 0
0 0 0 0 0 0 0 0 0 0 0 0 0 0 0 0 0 0 0 0 0 0 0 0 0 0 0 0 0 0 0 0 0 0 0 0 0 0 0 0 0 0 0
0 0 0 0 0 0 0 0 0 0 0 0 0 0 0 0 0 0 0 0 0 0 -0 -0 0 0 0 0 0 0 0 0 0 0 0 0 0 0 0 0 0 0 0
0 0 0 0 0 0 0 0 0 0 0 0 0 0 0 0 0 0 0 0 0 0 0 0 0 0 0 0 0 0 0 0 0 0 0 0 0 0 0 0 0 0 0
0 0 0 0 0 0 0 0 0 0 0 0 0 0 0 0 0 0 0 0 0 0 0 0 0 0 0 0 0 0 0 0 0 0 0 0 0 0 0 0 0 0 0
0 0 0 0 0 0 0 0 0 0 0 0 0 0 0 0 0 0 0 0 0 0 0 0 0 0 0 0 0 0 0 0 0 0 0 0 0 0 0 0 0 0 0
0 0 0 0 0 0 0 0 0 0 0 0 0 0 0 0 0 0 0 0 0 0 0 0 0 0 0 0 0 0 0 0 0 0 0 0 0 0 0 0 0 0 0
0 0 0 0 0 0 0 0 0 0 0 0 0 0 0 0 0 0 0 0 0 0 0 0 0 0 0 0 0 0 0 0 0 0 0 0 0 0 0 0 0 0 0
0 0 0 0 0 0 0 0 0 0 0 0 0 0 0 0 0 0 0 0 0 0 0 0 0 0 0 0 0 0 0 0 0 0 0 0 0 0 0 0 0 0 0
0 0 0 0 0 0 0 0 0 0 0 0 0 0 0 0 0 0 0 0 0 0 0 0 0 0 0 0 0 0 0 0 0 0 0 0 0 0 0 0 0 0 0
0 0 0 0 0 0 0 0 0 0 0 0 0 0 0 0 0 0 0 0 0 0 0 0 0 0 0 0 0 0 0 0 0 0 0 0 0 0 0 0 0 0 0
0 0 0 0 0 0 0 0 0 0 0 0 0 0 0 0 0 0 0 0 0 0 0 0 0 0 0 0 0 0 0 0 0 0 0 0 0 0 0 0 0 0 0
0 0 0 0 0 0 0 0 0 0 0 0 0 0 0 0 0 0 0 0 0 0 0 0 0 0 0 0 0 0 0 0 0 0 0 0 0 0 0 0 0 0 0
0 0 0 0 0 0 0 0 0 0 0 0 0 0 0 0 0 0 0 0 0 0 0 0 0 0 0 0 0 0 0 0 0 0 0 0 0 0 0 0 0 0 0
0 0 0 0 0 0 0 0 0 0 0 0 0 0 0 0 0 0 0 0 0 0 0 0 0 0 0 0 0 0 0 0 0 0 0 0 0 0 0 0 0 0 0
0 0 0 0 0 0 0 0 0 0 0 0 0 0 0 0 0 0 0 0 0 0 0 0 0 0 0 0 0 0 0 0 0 0 0 0 0 0 0 0 0 0 0
0 0 0 0 0 0 0 0 0 0 0 0 0 0 0 0 0 0 0 0 0 0 0 0 0 0 0 0 0 0 0 0 0 0 0 0 0 0 0 0 0 0 0
0 0 0 0 0 0 0 0 0 0 0 0 0 0 0 0 0 0 0 0 0 0 0 0 0 0 0 0 0 0 0 0 0 0 0 0 0 0 0 0 0 0 0
0 0 0 0 0 0 0 0 0 0 0 0 0 0 0 0 0 0 0 0 0 0 0 0 0 0 0 0 0 0 0 0 0 0 0 0 0 0 0 0 0 0 0
0 0 0 0 0 0 0 0 0 0 0 0 0 0 0 0 0 0 0 0 0 0 0 0 0 0 0 0 0 0 0 0 0 0 0 0 0 0 0 0 0 0 0
0 0 0 0 0 0 0 0 0 0 0 0 0 0 0 0 0 0 0 0 0 0 0 0 0 0 0 0 0 0 0 0 0 0 0 0 0 0 0 0 0 0 0
0 0 0 0 0 0 0 0 0 0 0 0 0 0 0 0 0 0 0 0 0 0 0 0 0 0 0 0 0 0 0 0 0 0 0 0 0 0 0 0 0 0 0
0 0 0 0 0 0 0 0 0 0 0 0 0 0 0 0 0 0 0 0 0 0 0 0 0 0 0 0 0 0 0 0 0 0 0 0 0 0 0 0 0 0 0
Wind_Speed
8 7 7 7 7 7 7 7 7 6 6 7 7 7 7 7 7 6 6 6 6 5 4 5 5 4 3 2 2 2 2 3 3 2 2 2 2 3 2 2 3 4 4
8 7 7 7 7 7 7 7 7 7 7 7 7 7 8 8 8 8 8 7 7 7 7 6 6 4 5 4 3 4 3 4 4 4 2 2 3 3 3 3 3 4 4
7 7 7 7 7 8 7 7 7 7 6 6 7 8 8 8 8 9 8 8 8 8 8 8 7 7 6 5 5 5 4 4 4 3 3 2 3 2 3 3 4 3 5
6 7 7 7 7 7 7 7 7 7 7 8 8 8 8 8 8 8 8 8 8 8 8 8 8 8 8 7 6 6 5 4 4 4 4 3 3 3 3 3 4 3 4
6 6 6 5 5 5 6 6 6 7 8 7 7 7 7 7 7 8 8 8 8 8 8 8 9 10 10 8 6 7 6 5 4 4 4 3 4 3 4 3 4 4 5
6 6 5 4 4 5 5 6 6 6 6 6 7 8 8 7 9 12 10 8 8 8 8 7 8 9 10 12 12 10 9 7 7 5 5 6 7 5 4 4 4 4 5
5 4 4 4 4 4 4 4 5 6 5 6 6 7 7 8 9 11 12 8 7 7 7 6 6 6 7 7 9 10 11 12 11 7 8 9 7 6 5 6 6 6 7
4 4 4 4 4 3 3 4 4 4 4 5 5 6 6 6 8 9 10 8 6 6 6 6 6 6 6 7 7 7 7 8 9 9 9 9 8 7 6 7 7 7 7
4 3 3 3 3 3 3 3 2 2 3 3 2 4 4 4 6 8 8 5 5 6 6 5 6 6 7 7 6 7 7 6 7 10 11 10 11 11 7 4 5 5 7
3 3 3 3 3 3 2 1 1 1 1 1 1 1 2 3 3 6 7 4 4 4 4 4 6 6 6 5 6 6 7 7 5 5 6 8 8 9 9 8 7 7 7
5 5 5 4 3 2 2 2 2 1 2 1 1 1 0 1 1 2 4 4 4 3 3 3 3 5 6 6 7 6 8 6 4 5 5 6 5 5 6 6 7 8 8
6 7 7 6 4 4 4 3 3 2 2 1 1 1 1 1 1 1 1 2 2 2 3 2 2 2 3 4 4 6 7 5 3 4 5 5 5 5 5 6 7 9 9
8 7 6 7 6 5 5 4 3 3 2 2 1 1 2 2 2 3 2 1 0 1 1 1 1 2 2 2 3 4 4 3 3 4 5 5 5 5 5 5 6 7 9
8 7 6 6 6 6 5 4 4 3 2 2 2 1 1 2 2 2 1 1 1 0 1 1 2 2 1 2 3 2 2 3 3 4 5 5 4 4 5 5 6 6 6
8 7 6 6 5 5 5 4 3 2 2 1 1 1 1 2 3 3 2 2 2 1 1 1 2 2 2 2 2 2 2 2 3 3 4 5 5 5 5 5 5 5 6
7 6 5 4 4 4 4 5 7 6 7 7 5 3 2 2 3 4 4 3 2 2 2 1 1 2 2 3 3 3 3 3 3 4 4 5 5 6 6 5 5 6 8
6 5 4 4 4 4 4 4 4 6 8 9 8 8 6 5 5 4 3 3 2 2 1 2 2 3 3 4 4 4 4 4 4 4 5 5 5 5 6 6 6 7 8
6 6 5 4 4 3 3 3 3 3 4 4 6 7 7 6 6 5 4 3 2 2 2 3 4 4 4 4 5 5 5 5 4 5 5 5 5 6 6 7 7 8 9
5 4 4 3 3 3 3 3 3 3 3 3 4 5 6 5 5 5 4 2 3 3 3 4 4 4 5 5 5 5 5 5 6 5 5 6 6 6 7 7 8 10 10
4 6 5 4 4 4 4 3 3 3 3 3 4 4 5 5 4 4 3 3 3 4 4 5 5 5 5 5 5 5 6 6 6 6 6 6 6 6 8 9 9 9 9
4 5 7 5 4 3 3 3 3 3 3 3 4 5 5 4 4 5 4 4 4 4 5 5 5 5 5 5 5 6 7 7 6 7 7 6 7 7 7 8 9 9 9
3 3 3 3 3 3 3 3 3 3 3 3 4 4 6 4 4 4 5 5 5 5 5 5 5 5 5 6 6 7 7 7 7 7 7 7 7 8 8 8 9 9 9
3 4 4 3 3 4 4 3 3 3 3 4 4 4 4 4 5 5 5 6 6 6 6 5 6 6 6 6 6 6 7 7 7 7 8 8 8 8 8 9 11 11 10
3 3 3 3 3 3 3 3 3 4 4 4 4 4 5 5 5 6 6 6 6 6 6 6 6 8 11 8 6 6 6 7 7 7 9 9 9 8 8 9 10 12 11
3 3 3 2 3 3 3 3 3 4 4 4 4 5 5 5 5 6 6 6 7 7 8 8 6 7 10 11 10 8 8 8 8 8 8 8 9 10 10 11 10 11 11
3 3 3 2 2 2 3 3 3 4 4 4 4 5 5 5 6 6 6 6 7 7 8 7 9 10 12 10 10 11 9 9 9 8 7 7 8 9 10 9 12 11 11
Wind_Direction
178 179 180 184 184 180 184 191 191 190 188 189 189 189 190 189 185 184 189 183 187 194 193 192 199 186 184 183 173 170 174 168 201 248 250 271 275 277 290 272 259 255 262
179 179 185 183 180 185 194 194 189 192 193 194 190 192 197 195 190 192 198 195 197 201 203 199 208 197 197 194 189 192 193 193 197 227 241 249 252 262 272 277 271 259 257
172 177 182 184 186 192 196 192 189 193 192 191 190 197 202 200 198 203 203 202 205 208 205 205 210 200 207 204 202 205 205 203 204 219 241 240 256 261 271 272 272 270 265
168 173 185 193 194 196 195 192 192 192 193 196 200 204 205 203 203 205 206 209 212 215 214 214 214 208 213 209 209 212 208 205 204 220 241 247 251 251 247 260 275 264 271
166 176 192 191 186 187 192 195 195 198 205 200 201 205 204 201 206 205 207 212 216 222 223 222 222 220 219 213 213 212 205 210 213 224 239 245 248 238 239 236 262 280 276
171 183 180 167 171 187 199 196 196 203 207 201 204 205 205 211 211 207 204 211 214 219 225 227 229 229 228 224 225 218 205 208 218 224 237 245 255 249 246 240 250 269 278
166 167 159 164 178 194 197 194 199 204 204 207 211 208 213 218 213 209 206 204 209 216 221 224 231 229 223 230 234 232 226 224 218 220 239 246 252 244 239 250 242 245 256
138 142 147 163 185 187 184 195 204 199 200 208 213 214 217 225 217 212 207 205 211 218 218 220 226 236 232 225 231 236 238 236 231 230 238 247 249 247 238 251 262 263 264
122 131 142 155 158 156 181 196 195 197 207 206 195 204 216 237 219 210 200 203 214 223 223 222 224 234 239 224 227 241 251 254 244 237 239 249 254 254 245 245 250 253 269
88 90 92 105 117 134 168 157 150 174 192 171 148 171 207 239 232 213 196 199 217 229 227 228 226 229 238 228 228 236 250 257 258 260 255 261 262 262 246 230 235 247 261
75 74 69 72 86 88 82 76 85 93 94 93 87 55 39 293 284 215 194 200 213 224 228 232 236 235 240 238 231 234 245 258 263 261 266 269 268 263 256 241 231 234 247
73 70 62 55 58 62 69 64 68 79 81 66 62 25 5 357 7 355 174 200 214 218 235 237 239 250 254 249 238 249 256 256 254 260 265 267 268 268 266 259 248 243 244
68 61 56 54 52 52 60 61 60 59 64 52 57 41 14 13 14 22 27 21 314 227 290 340 334 311 294 276 261 264 264 255 248 254 259 263 264 271 277 277 273 262 259
65 56 52 54 49 47 50 52 59 53 50 49 59 47 14 5 3 5 20 26 18 360 340 356 357 341 318 293 298 294 271 250 245 254 265 271 275 276 278 281 282 282 278
61 53 48 46 46 44 46 46 46 42 43 59 35 34 28 358 344 352 23 20 20 25 35 28 8 350 336 322 306 293 281 270 261 264 268 276 280 280 280 277 272 275 273
60 49 45 45 45 46 46 42 41 45 42 54 54 51 33 19 8 24 31 30 26 47 65 14 325 306 295 296 297 296 287 278 274 274 273 273 278 281 285 285 278 276 276
61 52 46 46 45 42 43 47 33 24 35 40 38 37 35 18 12 11 22 36 34 61 28 305 296 293 291 291 289 286 287 286 281 274 274 277 280 283 285 285 283 280 278
57 56 55 48 43 41 43 44 43 37 20 11 17 21 20 17 11 9 11 27 8 2 307 296 295 293 291 289 286 284 286 287 282 279 278 279 279 281 283 284 284 283 283
54 51 49 48 46 45 45 46 44 39 29 8 1 4 7 11 22 23 29 19 334 319 310 302 299 296 292 289 288 287 286 286 287 286 282 281 280 279 280 281 282 283 281
48 55 58 51 43 40 39 38 32 28 21 13 4 354 350 1 5 1 3 349 330 317 313 307 304 298 296 294 293 292 290 287 287 283 281 282 281 279 280 283 284 284 282
49 50 54 54 46 39 34 30 23 18 12 4 355 352 353 354 347 341 339 336 327 321 319 315 310 308 307 303 299 296 293 289 287 284 284 284 285 283 282 282 283 282 283
57 53 49 48 42 37 30 24 20 15 7 1 351 351 356 356 343 336 332 329 329 324 320 317 314 313 311 307 303 298 295 293 291 288 286 285 283 282 282 280 280 282 282
61 58 49 40 36 31 28 24 19 13 5 357 349 346 347 344 339 335 332 329 327 323 321 316 313 313 313 308 302 295 291 291 293 292 289 286 284 281 280 280 281 283 282
64 60 50 34 25 20 15 11 10 6 1 352 345 341 339 336 334 332 330 326 324 321 319 317 314 314 316 314 309 302 296 297 300 292 285 280 280 279 278 278 279 279 280
61 57 48 35 24 14 8 5 3 358 351 344 341 338 335 333 332 332 331 328 326 322 322 320 315 315 316 315 313 313 314 307 298 293 287 278 275 275 276 278 278 281 281
51 46 38 32 24 15 9 3 359 356 350 346 344 339 337 337 336 334 332 332 330 325 322 319 319 320 319 316 316 318 311 305 300 294 287 277 274 274 277 277 281 282 284